Location: Asheville, NC
(35.6000°N, 82.5500°W)
Time: 08:59:41
(UTC-04:00)

XW-2C - Pass Details

Date: 10 January 2018
Orbit: 511 x 530 km, 97.5° (Epoch: 26 April)

Event Time Altitude Azimuth Distance (km) Brightness Sun altitude
Rises 19:03:22 0° 216° (SW) 2,656 ? -17.5°
Reaches altitude 10° 19:07:26 10° 259° (W) 1,775 ? -18.3°
Maximum altitude 19:08:01 10° 268° (W) 1,758 ? -18.4°
Drops below altitude 10° 19:08:36 10° 277° (W) 1,777 ? -18.5°
Sets 19:12:42 0° 321° (NW) 2,673 ? -19.3°
